YAOGAN-43 01C (60460 NORAD) Tracking and Keplerian Element Data

This shows tracking and keplerian element data for the satellite.

Feedback or suggestion? Click here.




ElementValue
Catalog60460
NameYAOGAN-43 01C
Epoch Orbit866
Epoch Day286.47392521
Epoch Year2024
RAAN56.1794
Inclination35.0024
Eccentricity0.0007472
Argument of Perigee51.8965
Mean Anonmoly308.2422
Mean Motion15.22489092
Decay Rate0.00035975
L11 60460U 24148C 24286.47392521 .00035975 00000+0 15093-2 0 9998
L22 60460 35.0024 56.1794 0007472 51.8965 308.2422 15.22489092 8661



Live tracking and technical data element details for YAOGAN-43 01C (NORAD 60460). YAOGAN-43 01C can be tracked NOW for your location showing map with azimuth and elevation plus other details from your city location.







IsCatalogInMostPopularTable: catalog: 60460, numindb: 4
Update: records affected: 1



GetName: 60460 YAOGAN-43 01C

Hit Count: updated at: Fri, 06 Dec 2024 10:33:47 GMT